Tracking 31027 objects as of 19-Jul-2025
HD Live streaming from Space Station
objects crossing your sky now

DELTA 1 DEB

Track DELTA 1 DEB now!
10-day predictions


NORAD ID: 7052
Int'l Code: 1973-086AU
Perigee: 1,505.6 km
Apogee: 1,543.3 km
Inclination: 102.4 °
Period: 116.4 minutes
Semi major axis: 7895 km
RCS: 0.0861 m2 (small)
Launch date: November 6, 1973
Source: United States (US)
Launch site: AIR FORCE WESTERN TEST RANGE (AFWTR)

Note: This is SATELLITE DEBRIS
Your satellite tracking list
STARLINK-5129
Track 1 satellite(s)




NASA's NSSDC Master Catalog

Two Line Element Set (TLE):
1 07052U 73086AU  25199.79955454 -.00000004  00000-0  32471-3 0  9997
2 07052 102.3879 201.3407 0023907 147.9370  33.9080 12.37475868333693
Source of the keplerian elements: AFSPC